NOAA 16 DEB

Satellite information

Favourite Embed

Satellite Type and Status

DEBRISIN ORBIT

Key statistics

Satellite NOAA 16 DEB at a glance.

Uptime

9115

Days in orbit

Revolutions

≈ 14.2

Per day

Orbit

SSO

Sun Synchronous Orbit

Inclination

98.6

Latest

Satellite identification and parameters

Extended collection of information and parameters for NOAA 16 DEB.

Object identification

Identified? True

Debris? True

Object name: NOAA 16 DEB

International designator: 2000-055AP

Object number (NORAD): 41080

Object ID (CCSDS): 41080

Country: UNITED STATES OF AMERICA (US)

Current information (Y/N): Y

RCS size: SMALL

Orbital parameters

Period: 101.258 minutes

Inclination: 98.5544 deg

SMA: 7196.377 km

Apoapsis: 823.404 km

Periapsis: 813.079 km

RAAN: 292.5723 deg

Eccentricy: 0.00071737

Argument of periapsis: 12.9033 deg

Mean anomaly: 347.2328 deg

Mean motion: 14.22105885 rev/day

Mean motion (dot): 0.00003588 rev/day2

B* drag term: 0.0016387352 1/REarth

Two-line elements (TLE)

Creation date: Sept. 3, 2025, 10:15 a.m.

Reference frame: TEME

Reference center: EARTH

Epoch: Sept. 3, 2025, 1:52 a.m. UTC

TLE line 0: 0 NOAA 16 DEB

TLE line 1: 1 41080U 00055AP 25246.07794475 .00003588 00000-0 16387-2 0 9996

TLE line 2: 2 41080 98.5544 292.5723 0007174 12.9033 347.2328 14.22105885504056

Live tracking on map

Real-time ground track for satellite NOAA 16 DEB.

In-orbit conjunctions

A list of the most updated potential collisions computed for object NOAA 16 DEB.

Target Orbit TCA Probability of collision Miss distance Type
FENGYUN 1C DEB SSO 2025-07-03 05:04:44 0.0001231491 358.0 (m) DEBRIS
CZ-6A DEB LEO 2024-10-26 11:48:19 0.0001360088 122.0 (m) DEBRIS
METEOR 2-5 DEB LEO 2024-09-27 10:09:14 0.0004650608 102.0 (m) DEBRIS
NOAA 16 DEB SSO 2024-09-26 02:50:44 0.0004540544 726.0 (m) DEBRIS

Associated space launch

The NOAA K, L and M POES satellites begin the fifth generation of improved environmental monitoring in support of NOAA missions. The instrument payload has significant improvements and additions/deletions. The instrument changes have effected the spacecraft subsystems and data formats.

NOAA 16 DEB was lifted into orbit during the mission ‘Titan II SLV | NOAA 16’, on board a Titan II SLV space rocket.

The launch took place on Sept. 21, 2000, 10:22 a.m. from Space Launch Complex 4W.

For more information about the launch, click the button.

Launch to space Titan II SLV | NOAA 16
Titan II SLV | NOAA 16

Agency: N/A

Status: Launch Successful

Launch date: Sept. 21, 2000, 10:22 a.m. UTC

Rocket: Titan II SLV

Launch pad: Space Launch Complex 4W

Location: Vandenberg SFB, CA, USA

...

Latest news about this satellite

There are no fresh news available about this satellite. Check back as we update our databases every day.


Newsletter sign-up

Weekly statistics, charts and insights to help you stay on top of the space industry.